Dublin, GA

9:21 PM EDT on April 19, 2018 (GMT -0400)
Dublin

Weather History for KDBN - October, 2011

Change the Weather History Date:

Sunday, October 9, 2011

  Actual Average Record
Temperature  
Mean Temperature 72 °F -  
Max Temperature 78 °F 80 °F 91 °F (1941)
Min Temperature 66 °F 54 °F 36 °F (1978)
Cooling Degree Days 7    
Growing Degree Days 22 (Base 50)    
Moisture  
Dew Point 53 °F    
Average Humidity 54    
Maximum Humidity 64    
Minimum Humidity 43    
Precipitation  
Precipitation 0.00 in - - ()
Sea Level Pressure  
Sea Level Pressure 30.20 in    
Wind  
Wind Speed 11 mph (ENE)    
Max Wind Speed 20 mph    
Max Gust Speed 26 mph    
Visibility 10 miles    
Events      
Averages and records for this station are not official NWS values.
T = Trace of Precipitation, MM = Missing Value Source: NWS Daily Summary

Daily Weather History Graph

Daily Weather History Graph

Search for Another Location

Airport or City:

Astronomy

Oct. 09, 2011 Rise Set
Actual Time 7:31 AM EDT 7:06 PM EDT
Civil Twilight 7:06 AM EDT 7:31 PM EDT
Nautical Twilight 6:38 AM EDT 7:59 PM EDT
Astronomical Twilight 6:09 AM EDT 8:28 PM EDT
Moon 5:39 PM EDT (10/9) 5:20 AM EDT (10/9)
Length of Visible Light 12h 24m
Length of Day
11h 34m
Waxing Gibbous, 95% of the Moon is Illuminated
Oct 9
Waxing Gibbous
Oct 11
Full
Oct 19
Last Quarter
Oct 26
New
Nov 2
First Quarter

Hourly Weather History & Observations

Time (EDT) Temp. Dew Point Humidity Pressure Visibility Wind Dir Wind Speed Gust Speed Precip Events Conditions
12:15 AM 69.8 °F 46.4 °F 43% 30.27 in 10.0 mi ENE 9.2 mph - N/A   Clear
12:35 AM 69.8 °F 46.4 °F 43% 30.26 in 10.0 mi ENE 8.1 mph - N/A   Scattered Clouds
12:55 AM 68.0 °F 44.6 °F 43% 30.25 in 10.0 mi NE 9.2 mph - N/A   Scattered Clouds
1:15 AM 68.0 °F 44.6 °F 43% 30.25 in 10.0 mi NE 8.1 mph - N/A   Clear
1:35 AM 66.2 °F 44.6 °F 46% 30.24 in 10.0 mi NE 8.1 mph 17.3 mph N/A   Clear
1:55 AM 66.2 °F 44.6 °F 46% 30.25 in 10.0 mi NE 8.1 mph - N/A   Clear
2:15 AM 66.2 °F 44.6 °F 46% 30.24 in 10.0 mi ENE 6.9 mph - N/A   Scattered Clouds
2:35 AM 66.2 °F 44.6 °F 46% 30.24 in 10.0 mi NE 10.4 mph - N/A   Mostly Cloudy
2:55 AM 66.2 °F 44.6 °F 46% 30.23 in 10.0 mi NE 10.4 mph 16.1 mph N/A   Mostly Cloudy
3:15 AM 66.2 °F 44.6 °F 46% 30.22 in 10.0 mi NE 10.4 mph 16.1 mph N/A   Overcast
3:35 AM 66.2 °F 46.4 °F 49% 30.21 in 10.0 mi NE 11.5 mph 17.3 mph N/A   Overcast
3:55 AM 66.2 °F 46.4 °F 49% 30.21 in 10.0 mi NE 10.4 mph - N/A   Overcast
4:15 AM 66.2 °F 46.4 °F 49% 30.20 in 10.0 mi ENE 11.5 mph 17.3 mph N/A   Overcast
4:35 AM 66.2 °F 48.2 °F 52% 30.20 in 10.0 mi NE 10.4 mph 16.1 mph N/A   Overcast
4:55 AM 68.0 °F 48.2 °F 49% 30.20 in 10.0 mi ENE 13.8 mph 18.4 mph N/A   Overcast
5:15 AM 66.2 °F 48.2 °F 52% 30.21 in 10.0 mi ENE 12.7 mph 18.4 mph N/A   Overcast
5:35 AM 66.2 °F 50.0 °F 56% 30.21 in 10.0 mi ENE 10.4 mph - N/A   Overcast
5:55 AM 66.2 °F 50.0 °F 56% 30.22 in 10.0 mi ENE 6.9 mph 16.1 mph N/A   Overcast
6:15 AM 66.2 °F 51.8 °F 60% 30.21 in 10.0 mi ENE 8.1 mph - N/A   Overcast
6:35 AM 66.2 °F 51.8 °F 60% 30.22 in 10.0 mi ENE 8.1 mph - N/A   Overcast
6:55 AM 66.2 °F 51.8 °F 60% 30.22 in 10.0 mi ENE 8.1 mph - N/A   Overcast
7:15 AM 66.2 °F 51.8 °F 60% 30.22 in 10.0 mi ENE 9.2 mph - N/A   Overcast
7:35 AM 66.2 °F 53.6 °F 64% 30.22 in 10.0 mi NE 9.2 mph - N/A   Overcast
7:55 AM 66.2 °F 53.6 °F 64% 30.22 in 10.0 mi NE 10.4 mph - N/A   Overcast
8:15 AM 66.2 °F 53.6 °F 64% 30.22 in 10.0 mi NE 11.5 mph 17.3 mph N/A   Overcast
8:35 AM 68.0 °F 55.4 °F 64% 30.22 in 10.0 mi ENE 10.4 mph 18.4 mph N/A   Overcast
8:55 AM 69.8 °F 55.4 °F 60% 30.23 in 10.0 mi ENE 10.4 mph - N/A   Scattered Clouds
9:15 AM 69.8 °F 55.4 °F 60% 30.23 in 10.0 mi ENE 11.5 mph 18.4 mph N/A   Clear
9:35 AM 71.6 °F 57.2 °F 60% 30.23 in 10.0 mi ENE 11.5 mph 20.7 mph N/A   Clear
9:55 AM 73.4 °F 57.2 °F 57% 30.23 in 10.0 mi ENE 13.8 mph 19.6 mph N/A   Clear
10:15 AM 73.4 °F 57.2 °F 57% 30.22 in 10.0 mi ENE 19.6 mph 25.3 mph N/A   Clear
10:35 AM 75.2 °F 57.2 °F 53% 30.22 in 10.0 mi ENE 15.0 mph 21.9 mph N/A   Clear
10:55 AM 75.2 °F 57.2 °F 53% 30.22 in 10.0 mi East 17.3 mph 26.5 mph N/A   Clear
11:15 AM 75.2 °F 57.2 °F 53% 30.22 in 10.0 mi ENE 18.4 mph 21.9 mph N/A   Clear
11:35 AM 75.2 °F 57.2 °F 53% 30.22 in 10.0 mi East 17.3 mph 24.2 mph N/A   Clear
11:55 AM 75.2 °F 59.0 °F 57% 30.21 in 10.0 mi East 16.1 mph 23.0 mph N/A   Scattered Clouds
12:15 PM 75.2 °F 59.0 °F 57% 30.21 in 10.0 mi ENE 13.8 mph 23.0 mph N/A   Scattered Clouds
12:35 PM 75.2 °F 59.0 °F 57% 30.20 in 10.0 mi ENE 10.4 mph 21.9 mph N/A   Mostly Cloudy
12:55 PM 75.2 °F 59.0 °F 57% 30.19 in 10.0 mi East 13.8 mph 18.4 mph N/A   Mostly Cloudy
1:15 PM 75.2 °F 59.0 °F 57% 30.18 in 10.0 mi NE 11.5 mph - N/A   Mostly Cloudy
1:35 PM 77.0 °F 60.8 °F 57% 30.16 in 10.0 mi ENE 15.0 mph 18.4 mph N/A   Scattered Clouds
1:55 PM 78.8 °F 60.8 °F 54% 30.16 in 10.0 mi ENE 10.4 mph - N/A   Mostly Cloudy
2:15 PM 78.8 °F 60.8 °F 54% 30.15 in 10.0 mi ENE 12.7 mph 23.0 mph N/A   Mostly Cloudy
2:35 PM 78.8 °F 59.0 °F 51% 30.14 in 10.0 mi East 15.0 mph 19.6 mph N/A   Mostly Cloudy
2:55 PM 78.8 °F 59.0 °F 51% 30.13 in 10.0 mi East 16.1 mph 21.9 mph N/A   Mostly Cloudy
3:15 PM 77.0 °F 60.8 °F 57% 30.13 in 10.0 mi ENE 13.8 mph 20.7 mph N/A   Overcast
3:35 PM 75.2 °F 59.0 °F 57% 30.12 in 10.0 mi ENE 12.7 mph 23.0 mph N/A   Overcast
3:55 PM 75.2 °F 59.0 °F 57% 30.11 in 10.0 mi ENE 15.0 mph 21.9 mph N/A   Overcast
4:15 PM 75.2 °F 59.0 °F 57% 30.11 in 10.0 mi ENE 13.8 mph - N/A   Overcast
4:35 PM 75.2 °F 59.0 °F 57% 30.11 in 10.0 mi NE 13.8 mph 21.9 mph N/A   Overcast
4:55 PM 75.2 °F 60.8 °F 61% 30.10 in 10.0 mi ENE 16.1 mph 23.0 mph N/A   Mostly Cloudy
5:15 PM 75.2 °F 60.8 °F 61% 30.10 in 10.0 mi ENE 13.8 mph 20.7 mph N/A   Mostly Cloudy
5:35 PM 75.2 °F 60.8 °F 61% 30.11 in 10.0 mi ENE 15.0 mph 18.4 mph N/A   Overcast
5:55 PM 71.6 °F 62.6 °F 73% 30.12 in 10.0 mi East 12.7 mph 23.0 mph N/A   Overcast
6:15 PM 69.8 °F 62.6 °F 78% 30.13 in 5.0 mi ENE 12.7 mph 21.9 mph N/A   Overcast
6:35 PM 69.8 °F 62.6 °F 78% 30.12 in 10.0 mi NE 10.4 mph 18.4 mph N/A   Overcast
6:55 PM 69.8 °F 62.6 °F 78% 30.13 in 10.0 mi NE 9.2 mph - N/A   Overcast
7:15 PM 69.8 °F 64.4 °F 83% 30.12 in 7.0 mi ENE 10.4 mph 20.7 mph N/A   Overcast
7:35 PM 68.0 °F 64.4 °F 88% 30.12 in 10.0 mi NE 6.9 mph - N/A   Overcast
7:55 PM 68.0 °F 64.4 °F 88% 30.11 in 7.0 mi NE 8.1 mph - N/A   Overcast
8:15 PM 68.0 °F 62.6 °F 83% 30.12 in 10.0 mi ENE 12.7 mph 19.6 mph N/A   Overcast
8:35 PM 69.8 °F 62.6 °F 78% 30.11 in 10.0 mi NE 10.4 mph 17.3 mph N/A   Mostly Cloudy
8:55 PM 69.8 °F 60.8 °F 73% 30.11 in 10.0 mi NE 8.1 mph 16.1 mph N/A   Overcast
9:15 PM 69.8 °F 60.8 °F 73% 30.10 in 10.0 mi NE 8.1 mph - N/A   Overcast
9:55 PM 69.8 °F 60.8 °F 73% 30.10 in 10.0 mi NE 8.1 mph - N/A   Overcast
10:15 PM 71.6 °F 60.8 °F 69% 30.10 in 10.0 mi NE 9.2 mph - N/A   Overcast
10:35 PM 71.6 °F 60.8 °F 69% 30.10 in 10.0 mi NE 12.7 mph 17.3 mph N/A   Mostly Cloudy
10:55 PM 71.6 °F 60.8 °F 69% 30.11 in 10.0 mi ENE 11.5 mph - N/A   Mostly Cloudy
11:15 PM 69.8 °F 62.6 °F 78% 30.10 in 10.0 mi ENE 9.2 mph 21.9 mph N/A   Mostly Cloudy
11:35 PM 71.6 °F 60.8 °F 69% 30.09 in 10.0 mi ENE 10.4 mph - N/A   Scattered Clouds
11:55 PM 71.6 °F 60.8 °F 69% 30.09 in 10.0 mi ENE 12.7 mph 19.6 mph N/A   Overcast